Location: Boiro
(42.6475°N, 8.8834°W)
Time: 03:44:24
(UTC+01:00)

Vanguard 1 Rocket - Pass Details

Date: 12 December 2021
Orbit: 651 x 4224 km, 34.3° (Epoch: 21 January)

Event Time Altitude Azimuth Distance (km) Brightness Sun altitude
Rises 04:49:39 0° 264° (W) 4,277 - -44.4°
Reaches altitude 10° 04:52:00 10° 259° (W) 3,605 - -44.0°
Maximum altitude 05:01:30 58° 184° (S) 2,544 - -42.2°
Exits shadow 05:01:46 57° 179° (S) 2,569 9.4 -42.2°
Drops below altitude 10° 05:20:00 10° 112° (ESE) 6,621 12.4 -38.8°
Sets 05:26:13 0° 110° (ESE) 8,040 13.0 -37.7°
